Find Starlink 32279

NORAD ID: 61003 Int'l Des: 2024-158 Owner: SPXS Country: US Constellation: starlink operational
LEOCIRCULAR

当前视图

正在加载3D地球...

About Starlink 32279

Starlink 32279 (NORAD 61003) is a starlink constellation satellite (v2 mini) launched Sep 5, 2024 by SPXS of US. It operates in LEO, CIRCULAR orbit with a mass of 730.00 kg.

即将过境

Passes for default location (London). Set your location on the main map for personalized predictions.

高度历史

Loading altitude history...

两行轨道根数

1 61003U 24158P 26263.63024880 .00001936 00000-0 68428-4 0 9991
2 61003 53.1609 236.7828 0001287 98.1783 261.9365 15.34394640115543
Epoch: Sep 20, 2026 • Age: 20 hours

当前状态

高度 463.6 km
远地点 / 近地点 N/A
速度 7.64 km/s
星下点 1.42°N, 61.68°E
发射日期 Sep 5, 2024
运行时间 2 years
类型 internet

技术详情

分类 Payload
质量 730.00 kg
干质量 700.00 kg
长度 0.30 m
跨度 29.00 m
形状 ? Box + pan
制造商 SPXS
平台类型 Starlink V2M
阶段状态 In Orbit
所有者/国家 SPXS/US

Most Searched